Location: Central Falls
(41.8900°N, 71.3929°W)
Time: 10:56:11
(UTC+00:00)

A-11 Canister half - Pass Details

Date: 06 December 2023
Orbit: 1526 x 1682 km, 47.3° (Epoch: 20 February)

Event Time Altitude Azimuth Distance (km) Brightness Sun altitude
Rises 06:16:34 0° 297° (WNW) 4,899 - -61.5°
Reaches altitude 10° 06:19:52 10° 292° (WNW) 3,892 - -60.9°
Maximum altitude 06:29:12 49° 222° (SW) 2,002 - -59.5°
Drops below altitude 10° 06:38:15 10° 152° (SSE) 3,762 - -58.0°
Sets 06:41:24 0° 146° (SSE) 4,724 - -57.5°
